Precipitable_Water
0.57 0.56 0.53 0.51 0.51 0.51 0.54 0.50 0.50 0.49 0.50 0.49 0.47 0.47 0.49 0.54 0.56 0.56 0.55 0.53 0.51 0.51 0.49 0.47 0.46 0.46 0.47 0.47 0.48 0.49 0.49 0.57 0.61 0.63 0.61 0.61 0.61 0.63 0.68 0.74 0.81 0.95
0.55 0.56 0.54 0.53 0.51 0.52 0.54 0.54 0.52 0.50 0.49 0.50 0.49 0.50 0.51 0.52 0.54 0.55 0.55 0.54 0.54 0.54 0.55 0.55 0.54 0.51 0.48 0.47 0.50 0.49 0.48 0.51 0.53 0.59 0.58 0.60 0.63 0.62 0.61 0.67 0.74 0.82
0.56 0.54 0.54 0.52 0.52 0.52 0.53 0.54 0.53 0.51 0.50 0.51 0.52 0.53 0.53 0.53 0.51 0.53 0.56 0.55 0.54 0.54 0.54 0.54 0.53 0.52 0.49 0.48 0.48 0.47 0.49 0.49 0.50 0.55 0.56 0.56 0.60 0.63 0.63 0.64 0.67 0.71
0.56 0.55 0.54 0.53 0.53 0.54 0.55 0.54 0.52 0.51 0.51 0.50 0.50 0.52 0.54 0.56 0.56 0.55 0.53 0.54 0.54 0.53 0.53 0.52 0.50 0.50 0.48 0.47 0.47 0.47 0.48 0.49 0.51 0.54 0.53 0.55 0.57 0.60 0.62 0.64 0.65 0.67
0.57 0.56 0.55 0.53 0.53 0.55 0.56 0.53 0.51 0.52 0.52 0.53 0.54 0.54 0.52 0.51 0.51 0.52 0.52 0.52 0.52 0.52 0.51 0.50 0.49 0.48 0.48 0.46 0.46 0.45 0.46 0.46 0.48 0.50 0.51 0.50 0.53 0.56 0.60 0.63 0.63 0.63
0.59 0.57 0.56 0.55 0.54 0.53 0.53 0.52 0.53 0.53 0.53 0.52 0.52 0.53 0.52 0.52 0.52 0.51 0.50 0.50 0.50 0.49 0.49 0.49 0.48 0.48 0.47 0.46 0.46 0.45 0.44 0.44 0.45 0.47 0.48 0.51 0.53 0.55 0.56 0.60 0.63 0.63
0.56 0.57 0.55 0.55 0.55 0.54 0.53 0.53 0.54 0.54 0.54 0.54 0.54 0.51 0.52 0.52 0.51 0.50 0.49 0.48 0.47 0.47 0.46 0.46 0.46 0.46 0.47 0.46 0.45 0.44 0.45 0.44 0.44 0.44 0.44 0.45 0.51 0.54 0.56 0.56 0.58 0.62
0.58 0.58 0.57 0.56 0.55 0.55 0.54 0.54 0.55 0.55 0.54 0.54 0.52 0.53 0.54 0.52 0.51 0.51 0.50 0.49 0.47 0.47 0.46 0.46 0.45 0.45 0.46 0.46 0.44 0.43 0.43 0.45 0.44 0.43 0.43 0.43 0.46 0.49 0.55 0.57 0.57 0.58
0.60 0.58 0.57 0.56 0.55 0.55 0.55 0.56 0.56 0.56 0.57 0.55 0.54 0.54 0.55 0.54 0.53 0.52 0.50 0.49 0.48 0.47 0.47 0.46 0.46 0.45 0.46 0.46 0.45 0.45 0.44 0.43 0.44 0.43 0.43 0.42 0.42 0.45 0.50 0.56 0.57 0.56
0.58 0.59 0.56 0.55 0.55 0.56 0.55 0.55 0.55 0.56 0.57 0.55 0.55 0.55 0.54 0.54 0.53 0.51 0.50 0.49 0.47 0.46 0.46 0.46 0.46 0.46 0.47 0.47 0.46 0.46 0.45 0.44 0.45 0.45 0.44 0.43 0.42 0.43 0.45 0.49 0.54 0.57
0.58 0.58 0.56 0.55 0.55 0.55 0.55 0.55 0.56 0.56 0.57 0.56 0.55 0.54 0.53 0.52 0.51 0.51 0.49 0.48 0.46 0.45 0.45 0.46 0.47 0.47 0.47 0.47 0.48 0.48 0.47 0.47 0.46 0.47 0.47 0.47 0.46 0.44 0.44 0.46 0.51 0.55
0.58 0.57 0.55 0.54 0.54 0.54 0.54 0.55 0.56 0.56 0.55 0.56 0.55 0.53 0.52 0.51 0.50 0.49 0.48 0.47 0.47 0.47 0.47 0.48 0.48 0.49 0.48 0.48 0.48 0.48 0.48 0.48 0.48 0.48 0.48 0.49 0.50 0.50 0.47 0.45 0.45 0.51
0.57 0.55 0.54 0.54 0.55 0.56 0.57 0.56 0.56 0.55 0.54 0.53 0.53 0.51 0.50 0.48 0.47 0.46 0.47 0.46 0.47 0.47 0.48 0.48 0.49 0.50 0.51 0.51 0.50 0.49 0.49 0.48 0.48 0.49 0.49 0.50 0.51 0.53 0.53 0.51 0.47 0.47
0.57 0.56 0.55 0.56 0.56 0.56 0.55 0.55 0.53 0.53 0.53 0.53 0.51 0.49 0.47 0.46 0.45 0.45 0.46 0.47 0.47 0.47 0.48 0.49 0.49 0.49 0.50 0.50 0.50 0.50 0.49 0.49 0.50 0.49 0.50 0.50 0.51 0.52 0.53 0.54 0.54 0.51
0.57 0.56 0.56 0.55 0.54 0.53 0.52 0.51 0.51 0.51 0.50 0.49 0.48 0.47 0.47 0.46 0.46 0.46 0.46 0.46 0.47 0.48 0.48 0.49 0.49 0.49 0.50 0.50 0.50 0.50 0.50 0.50 0.50 0.50 0.50 0.50 0.50 0.51 0.52 0.53 0.54 0.55
0.53 0.54 0.54 0.53 0.52 0.50 0.50 0.50 0.50 0.48 0.48 0.47 0.47 0.46 0.45 0.45 0.45 0.46 0.46 0.45 0.45 0.46 0.47 0.48 0.49 0.50 0.51 0.52 0.52 0.51 0.51 0.51 0.51 0.51 0.51 0.51 0.51 0.50 0.50 0.52 0.53 0.55
0.52 0.53 0.53 0.50 0.50 0.49 0.49 0.48 0.47 0.47 0.47 0.46 0.45 0.45 0.44 0.44 0.44 0.43 0.44 0.44 0.43 0.43 0.44 0.46 0.48 0.50 0.52 0.53 0.54 0.54 0.54 0.53 0.52 0.51 0.51 0.50 0.50 0.49 0.49 0.50 0.52 0.54
0.52 0.52 0.50 0.48 0.48 0.48 0.47 0.47 0.46 0.45 0.44 0.44 0.44 0.43 0.43 0.43 0.42 0.42 0.43 0.42 0.42 0.43 0.43 0.45 0.47 0.50 0.51 0.51 0.52 0.53 0.54 0.53 0.53 0.52 0.52 0.51 0.50 0.50 0.49 0.50 0.50 0.51
0.52 0.49 0.48 0.47 0.47 0.47 0.46 0.45 0.44 0.43 0.42 0.42 0.41 0.42 0.42 0.41 0.42 0.42 0.42 0.42 0.41 0.41 0.42 0.45 0.47 0.49 0.50 0.50 0.51 0.51 0.52 0.52 0.51 0.51 0.51 0.50 0.51 0.51 0.50 0.50 0.50 0.50
0.50 0.48 0.46 0.46 0.46 0.46 0.45 0.44 0.43 0.42 0.42 0.42 0.42 0.42 0.41 0.42 0.42 0.41 0.40 0.40 0.41 0.42 0.43 0.45 0.47 0.49 0.50 0.50 0.50 0.50 0.51 0.51 0.51 0.50 0.50 0.50 0.50 0.50 0.50 0.50 0.50 0.49
0.49 0.47 0.46 0.45 0.45 0.45 0.44 0.43 0.42 0.42 0.42 0.42 0.41 0.41 0.41 0.41 0.40 0.39 0.39 0.40 0.41 0.44 0.45 0.46 0.48 0.50 0.50 0.50 0.50 0.50 0.51 0.50 0.50 0.50 0.50 0.49 0.50 0.50 0.51 0.50 0.50 0.50
0.47 0.46 0.45 0.44 0.44 0.44 0.43 0.43 0.43 0.42 0.41 0.41 0.41 0.40 0.41 0.41 0.40 0.40 0.39 0.40 0.42 0.44 0.45 0.45 0.48 0.49 0.49 0.50 0.50 0.50 0.50 0.50 0.50 0.49 0.49 0.49 0.49 0.50 0.50 0.50 0.50 0.50
0.48 0.45 0.44 0.44 0.44 0.43 0.43 0.42 0.42 0.42 0.42 0.41 0.38 0.39 0.39 0.39 0.38 0.38 0.40 0.41 0.43 0.45 0.45 0.46 0.47 0.49 0.49 0.49 0.49 0.49 0.49 0.48 0.49 0.49 0.49 0.48 0.48 0.50 0.50 0.50 0.50 0.49
0.47 0.45 0.43 0.43 0.43 0.42 0.42 0.42 0.42 0.41 0.39 0.39 0.37 0.37 0.37 0.38 0.38 0.39 0.42 0.44 0.44 0.45 0.46 0.45 0.46 0.48 0.49 0.49 0.48 0.48 0.48 0.47 0.48 0.48 0.48 0.49 0.50 0.52 0.52 0.52 0.51 0.51
0.46 0.45 0.43 0.43 0.42 0.42 0.42 0.40 0.39 0.38 0.37 0.36 0.36 0.37 0.38 0.39 0.40 0.41 0.43 0.45 0.45 0.46 0.47 0.46 0.46 0.47 0.48 0.48 0.48 0.48 0.49 0.49 0.49 0.48 0.47 0.48 0.51 0.51 0.53 0.53 0.53 0.52
0.45 0.45 0.45 0.45 0.43 0.42 0.41 0.39 0.38 0.36 0.35 0.35 0.37 0.38 0.38 0.39 0.41 0.43 0.43 0.44 0.45 0.46 0.46 0.47 0.46 0.47 0.48 0.48 0.48 0.49 0.49 0.50 0.51 0.50 0.49 0.51 0.53 0.53 0.53 0.54 0.54 0.54
Wind_Speed
22 22 22 22 22 22 22 22 22 22 22 22 23 23 23 23 24 24 24 25 25 26 26 27 28 29 29 30 30 31 31 32 33 33 34 34 35 36 36 37 37 37
22 22 23 23 23 23 23 23 23 23 23 23 24 24 24 25 25 26 26 26 26 27 27 27 28 29 30 30 31 32 32 33 33 34 34 35 35 36 36 37 37 38
23 23 23 23 23 23 23 23 24 24 24 25 25 25 26 26 26 27 27 28 28 28 28 28 28 29 30 31 31 32 33 33 34 34 35 35 35 36 36 36 37 38
24 24 24 24 24 24 24 25 25 25 25 26 26 26 27 27 27 28 28 29 29 29 29 30 30 29 30 30 31 32 33 34 34 34 35 36 36 36 36 36 37 38
24 25 25 25 25 25 26 26 26 26 27 27 27 27 28 28 29 29 29 30 30 30 30 30 30 31 31 31 32 32 33 34 35 35 36 36 36 37 37 37 37 37
25 25 26 26 26 27 27 27 28 28 28 28 29 29 29 30 30 30 30 31 31 31 31 31 31 31 31 32 32 32 33 34 34 35 36 37 37 37 37 37 37 38
26 26 26 27 27 28 28 28 29 29 29 30 30 30 30 30 30 31 31 32 32 32 32 32 32 32 32 32 32 33 33 34 34 35 36 37 37 38 38 38 38 38
26 27 27 27 28 28 29 29 30 30 30 31 31 31 31 31 32 32 32 33 33 33 33 33 33 33 33 33 33 34 34 34 34 35 36 37 37 38 38 39 39 39
27 27 28 28 28 29 29 30 30 31 31 31 31 31 31 32 32 33 33 33 34 34 34 34 34 34 34 34 34 34 34 35 35 36 36 37 37 38 39 39 40 41
27 27 28 29 29 29 30 30 31 31 31 31 32 32 32 33 33 34 34 34 35 35 35 35 35 35 35 35 35 35 35 35 36 36 36 37 38 38 39 40 40 42
27 28 28 29 29 30 30 30 30 31 31 31 32 33 33 34 34 34 35 35 35 36 36 36 36 36 36 36 36 36 36 36 36 36 37 37 38 38 39 40 40 41
27 28 28 29 29 29 30 30 30 31 32 32 33 34 34 35 35 36 36 36 36 37 37 37 37 37 37 37 37 37 37 37 37 37 38 38 38 38 39 40 41 41
27 27 28 28 28 29 29 30 30 31 32 32 33 34 35 36 36 37 37 37 38 38 38 38 38 38 38 38 38 39 39 39 39 39 39 39 39 39 39 40 41 42
26 26 26 27 27 28 28 29 30 31 32 33 34 35 36 37 37 37 38 38 38 38 38 38 38 39 39 39 39 39 39 40 40 40 40 40 39 40 40 40 41 42
25 25 26 26 27 28 28 29 30 31 32 34 35 36 36 36 37 37 38 38 38 38 39 39 39 39 39 39 40 40 40 40 40 40 41 41 41 40 40 41 41 41
25 25 26 26 27 27 28 29 30 31 33 34 34 35 36 36 37 37 38 38 39 39 39 39 39 39 40 40 41 41 41 42 42 42 42 42 42 42 41 41 41 42
25 25 26 26 27 27 28 29 30 31 33 34 34 35 35 36 36 37 37 38 38 39 39 39 39 39 40 40 41 41 42 43 44 44 44 44 44 43 43 43 43 43
25 25 25 26 26 27 28 29 30 31 33 34 34 34 35 35 36 36 37 37 38 38 38 38 38 39 39 40 40 41 42 43 44 45 45 46 46 46 45 44 44 44
24 25 25 26 26 27 28 29 31 32 33 33 34 34 34 35 35 36 36 37 37 38 38 38 38 38 39 39 40 41 42 43 44 45 46 47 47 47 47 47 46 46
24 24 25 26 27 28 29 30 31 32 33 33 33 34 34 35 36 36 36 36 37 37 37 38 38 38 39 40 41 42 43 44 44 46 47 47 48 48 49 49 48 48
24 24 25 26 27 28 30 31 32 33 33 33 33 34 34 35 36 36 36 36 37 37 37 38 38 39 40 41 41 42 43 44 45 46 47 48 49 50 50 50 50 50
23 24 25 26 28 29 30 31 32 33 33 33 34 34 35 35 36 36 36 37 37 37 38 38 39 39 40 41 41 42 43 44 45 47 48 49 50 50 51 52 52 51
24 24 26 27 28 30 31 32 32 32 33 33 34 34 35 35 36 36 36 37 37 38 38 39 39 40 40 41 42 43 44 45 46 47 48 49 50 50 51 52 52 52
24 25 26 28 29 30 31 31 32 33 33 34 34 34 34 35 35 36 36 36 37 38 38 39 40 40 41 42 43 43 44 45 46 48 49 50 50 50 51 51 52 53
24 26 27 28 29 30 31 31 32 33 33 33 33 34 34 34 35 35 35 36 36 38 38 39 40 40 41 42 42 43 44 45 46 48 49 49 49 49 49 50 51 52
25 26 27 27 29 30 31 32 32 33 33 32 33 33 33 34 34 34 35 36 36 37 38 39 39 39 40 41 42 43 44 45 45 46 47 47 47 47 47 48 49 49
Wind_Direction
259 260 261 261 262 263 263 265 266 266 267 267 268 268 269 270 271 272 273 274 275 275 274 274 273 272 270 268 266 265 263 261 259 259 259 258 257 256 256 255 254 253
260 261 261 262 263 263 264 266 267 267 268 268 269 270 271 272 272 273 273 274 275 275 274 274 274 273 272 270 268 266 264 262 261 260 259 259 258 257 256 256 255 254
261 261 262 262 263 264 265 266 267 268 268 269 270 271 272 273 274 274 275 275 275 275 274 274 273 273 272 271 269 267 265 264 262 261 260 259 259 258 257 256 255 254
262 262 262 263 263 264 265 267 268 268 269 270 271 272 273 274 275 276 276 276 276 275 275 274 273 272 272 271 269 267 266 264 263 262 261 260 259 258 257 257 256 255
263 263 263 263 264 265 266 267 268 269 270 271 272 273 274 275 276 277 277 277 277 277 276 274 273 273 272 272 270 268 267 265 264 263 262 261 260 259 258 257 256 255
264 264 264 264 264 265 266 267 268 270 271 272 273 275 276 276 277 277 278 278 278 278 276 275 274 273 272 272 271 269 268 267 265 264 263 262 261 260 259 257 257 256
264 265 265 265 265 266 266 268 269 270 272 273 275 276 276 276 277 278 278 278 278 278 277 275 275 274 273 272 271 270 269 267 266 265 264 262 261 260 259 258 257 257
265 266 266 266 266 267 268 269 270 272 273 274 275 276 277 276 277 278 278 278 278 277 277 276 275 274 273 272 271 270 269 268 267 266 264 263 261 260 259 258 257 256
266 266 267 267 267 268 269 270 272 273 274 275 276 277 277 277 277 278 278 278 278 277 276 276 275 274 273 272 271 270 269 268 267 266 265 264 262 260 259 257 257 256
266 267 267 267 268 269 270 272 273 274 275 276 276 277 277 277 277 278 278 278 278 277 276 276 275 274 273 272 271 270 269 268 267 266 265 264 262 261 259 257 257 256
266 267 267 268 269 270 272 273 274 275 276 276 277 278 278 278 278 278 278 278 278 277 277 276 275 273 272 271 270 269 269 268 267 266 265 264 262 261 260 258 257 256
267 267 268 269 270 271 273 274 275 275 276 277 278 278 279 279 279 279 279 279 278 277 277 275 274 273 272 271 270 269 268 267 267 266 265 264 263 262 260 258 257 256
267 268 269 270 271 272 273 274 275 276 277 278 278 279 280 280 280 280 279 279 278 277 276 275 274 273 271 271 270 268 267 267 266 265 265 264 263 262 261 259 258 256
266 268 269 271 272 273 274 275 277 277 278 278 279 279 280 280 280 280 280 279 278 277 276 274 273 272 271 270 270 268 267 266 266 265 264 264 263 262 261 260 259 257
267 268 270 271 273 274 276 277 277 278 279 279 280 280 280 280 280 280 280 279 278 277 275 274 273 272 271 270 269 268 267 266 266 265 264 264 263 262 261 260 259 258
268 270 271 272 274 276 277 278 279 280 280 281 280 280 281 281 281 281 280 279 278 277 275 274 273 272 271 270 269 268 267 267 266 265 264 264 263 262 261 260 259 259
269 271 272 274 276 277 278 279 280 281 282 282 282 282 282 282 282 282 281 280 279 278 276 275 274 272 272 270 269 268 268 267 266 265 264 264 263 262 261 260 259 258
269 271 273 275 277 278 279 281 282 283 283 283 283 283 283 283 283 283 282 281 280 278 277 276 274 273 273 272 270 269 268 268 267 266 265 264 263 262 261 260 259 258
269 271 274 275 277 279 280 282 283 284 285 285 284 284 284 284 284 283 283 282 280 279 277 276 275 275 274 273 272 271 270 268 267 266 265 264 263 262 261 260 258 258
270 273 275 276 278 280 281 283 284 285 286 286 286 286 286 285 285 284 283 282 281 279 278 277 276 276 275 275 274 273 272 270 269 268 266 265 263 262 261 259 258 257
272 274 276 277 279 281 283 284 286 287 287 287 287 287 287 287 286 285 283 282 281 280 279 278 277 277 276 276 275 274 274 272 271 269 268 266 264 263 261 259 258 256
273 275 277 278 280 282 285 286 287 288 289 289 289 289 289 288 287 285 284 283 282 281 280 279 278 278 277 277 276 275 275 274 272 271 269 267 265 264 262 260 258 257
274 276 278 280 283 286 288 289 290 290 291 291 291 291 290 289 287 286 285 284 283 282 281 280 280 280 279 278 278 277 276 275 273 272 270 268 266 265 263 261 259 257
274 277 280 283 286 289 291 291 292 292 292 292 292 291 290 289 288 287 285 284 284 283 283 282 282 281 281 280 279 278 278 276 275 273 271 269 267 265 263 261 258 256
276 280 283 286 289 291 292 293 293 293 293 293 292 291 291 290 289 288 287 286 285 285 285 284 283 283 282 281 281 280 280 279 277 275 272 270 267 265 263 261 259 256
278 282 285 288 291 293 293 294 294 293 293 293 292 292 292 292 291 290 288 288 287 287 287 286 285 284 283 283 283 283 282 281 279 276 273 270 268 265 263 261 259 257